| time (UTC) | temp F | wind direction | speed MPH | gust MPH | rain 1hr in | rain 24hr in | rain mn in | humidity % | barometer mb |
| 20260506195002 | 78 | 225 | 2.0 | 4.0 | 0.00 | 0.00 | 0.00 | 38 | 1013.1 |
| 20260506194502 | 78 | 181 | 4.0 | 8.0 | 0.00 | 0.00 | 0.00 | 38 | 1013.2 |
| 20260506194002 | 77 | 191 | 3.0 | 6.0 | 0.00 | 0.00 | 0.00 | 38 | 1013.2 |
| 20260506193511 | 77 | 180 | 4.0 | 8.0 | 0.00 | 0.00 | 0.00 | 39 | 1013.2 |
| 20260506193012 | 77 | 160 | 4.0 | 8.0 | 0.00 | 0.00 | 0.00 | 38 | 1013.3 |
| 20260506192507 | 78 | 176 | 3.0 | 7.0 | 0.00 | 0.00 | 0.00 | 38 | 1013.5 |
| 20260506192010 | 78 | 141 | 3.0 | 8.0 | 0.00 | 0.00 | 0.00 | 38 | 1013.5 |
| 20260506191517 | 78 | 223 | 2.0 | 4.0 | 0.00 | 0.00 | 0.00 | 39 | 1013.5 |
| 20260506191001 | 77 | 262 | 2.0 | 5.0 | 0.00 | 0.00 | 0.00 | 40 | 1013.5 |
| 20260506190502 | 77 | 214 | 3.0 | 5.0 | 0.00 | 0.00 | 0.00 | 39 | 1013.5 |
| 20260506190007 | 77 | 266 | 2.0 | 4.0 | 0.00 | 0.00 | 0.00 | 38 | 1013.7 |
| 20260506185502 | 76 | 191 | 2.0 | 5.0 | 0.00 | 0.00 | 0.00 | 39 | 1013.9 |
| 20260506185001 | 76 | 240 | 3.0 | 6.0 | 0.00 | 0.00 | 0.00 | 39 | 1013.9 |
| 20260506184521 | 75 | 313 | 1.0 | 3.0 | 0.00 | 0.00 | 0.00 | 39 | 1013.9 |
| 20260506184007 | 76 | 245 | 3.0 | 5.0 | 0.00 | 0.00 | 0.00 | 39 | 1013.9 |
| 20260506183502 | 76 | 158 | 2.0 | 4.0 | 0.00 | 0.00 | 0.00 | 39 | 1013.9 |
| 20260506182511 | 75 | 226 | 2.0 | 4.0 | 0.00 | 0.00 | 0.00 | 40 | 1013.9 |
| 20260506182012 | 75 | 124 | 3.0 | 6.0 | 0.00 | 0.00 | 0.00 | 40 | 1013.9 |
| 20260506181507 | 74 | 73 | 1.0 | 4.0 | 0.00 | 0.00 | 0.00 | 41 | 1013.9 |
| 20260506181002 | 73 | 215 | 3.0 | 7.0 | 0.00 | 0.00 | 0.00 | 41 | 1013.9 |
| 20260506180501 | 74 | 125 | 3.0 | 8.0 | 0.00 | 0.00 | 0.00 | 40 | 1013.9 |
| 20260506180006 | 74 | 168 | 2.0 | 5.0 | 0.00 | 0.00 | 0.00 | 41 | 1013.9 |
| 20260506175006 | 72 | 208 | 3.0 | 7.0 | 0.00 | 0.00 | 0.00 | 42 | 1014.0 |
| 20260506174501 | 71 | 189 | 2.0 | 5.0 | 0.00 | 0.00 | 0.00 | 41 | 1014.2 |
| 20260506174001 | 72 | 125 | 3.0 | 7.0 | 0.00 | 0.00 | 0.00 | 41 | 1014.2 |
| 20260506173507 | 71 | 111 | 1.0 | 4.0 | 0.00 | 0.00 | 0.00 | 40 | 1014.2 |
| 20260506173010 | 70 | 85 | 2.0 | 3.0 | 0.00 | 0.00 | 0.00 | 39 | 1014.2 |
| 20260506172527 | 69 | 22 | 2.0 | 3.0 | 0.00 | 0.00 | 0.00 | 39 | 1014.3 |
| 20260506172022 | 68 | 98 | 2.0 | 4.0 | 0.00 | 0.00 | 0.00 | 39 | 1014.5 |
| 20260506171504 | 67 | 323 | 2.0 | 4.0 | 0.00 | 0.00 | 0.00 | 40 | 1014.6 |
| 20260506171001 | 67 | 128 | 2.0 | 5.0 | 0.00 | 0.00 | 0.00 | 39 | 1014.6 |
| 20260506170501 | 67 | 8 | 2.0 | 4.0 | 0.00 | 0.00 | 0.00 | 41 | 1014.6 |
| 20260506170006 | 66 | 311 | 1.0 | 3.0 | 0.00 | 0.00 | 0.00 | 41 | 1014.7 |
| 20260506165515 | 65 | 336 | 2.0 | 5.0 | 0.00 | 0.00 | 0.00 | 41 | 1014.9 |
| 20260506165012 | 66 | 31 | 2.0 | 4.0 | 0.00 | 0.00 | 0.00 | 41 | 1014.9 |
| 20260506164505 | 65 | 58 | 2.0 | 4.0 | 0.00 | 0.00 | 0.00 | 42 | 1014.9 |
| 20260506163506 | 64 | 96 | 1.0 | 2.0 | 0.00 | 0.00 | 0.00 | 43 | 1014.9 |
| 20260506163011 | 63 | 57 | 2.0 | 4.0 | 0.00 | 0.00 | 0.00 | 44 | 1015.2 |
| 20260506162018 | 61 | 43 | 1.0 | 4.0 | 0.00 | 0.00 | 0.00 | 47 | 1015.2 |
| 20260506161534 | 61 | 25 | 3.0 | 5.0 | 0.00 | 0.00 | 0.00 | 47 | 1015.2 |
| 20260506161007 | 60 | 38 | 1.0 | 3.0 | 0.00 | 0.00 | 0.00 | 47 | 1015.2 |
| 20260506160501 | 60 | 37 | 2.0 | 4.0 | 0.00 | 0.00 | 0.00 | 47 | 1015.2 |
| 20260506160003 | 60 | 14 | 2.0 | 4.0 | 0.00 | 0.00 | 0.00 | 47 | 1015.2 |
| 20260506155512 | 60 | 88 | 1.0 | 3.0 | 0.00 | 0.00 | 0.00 | 49 | 1015.2 |
| 20260506155011 | 60 | 359 | 1.0 | 3.0 | 0.00 | 0.00 | 0.00 | 49 | 1015.2 |
| 20260506154502 | 60 | 358 | 1.0 | 2.0 | 0.00 | 0.00 | 0.00 | 50 | 1015.2 |
| 20260506154001 | 60 | 17 | 1.0 | 2.0 | 0.00 | 0.00 | 0.00 | 49 | 1015.2 |
| 20260506153501 | 59 | 51 | 2.0 | 3.0 | 0.00 | 0.00 | 0.00 | 49 | 1015.2 |
| 20260506153006 | 58 | 24 | 1.0 | 2.0 | 0.00 | 0.00 | 0.00 | 51 | 1015.2 |
| 20260506152501 | 58 | 48 | 2.0 | 3.0 | 0.00 | 0.00 | 0.00 | 52 | 1015.2 |
| 20260506152001 | 58 | 42 | 2.0 | 3.0 | 0.00 | 0.00 | 0.00 | 56 | 1015.2 |
| 20260506151500 | 58 | 72 | 1.0 | 2.0 | 0.00 | 0.00 | 0.00 | 61 | 1015.2 |
| 20260506150506 | 56 | 66 | 1.0 | 2.0 | 0.00 | 0.00 | 0.00 | 64 | 1015.3 |
| 20260506150001 | 55 | 83 | 1.0 | 2.0 | 0.00 | 0.00 | 0.00 | 67 | 1015.3 |
| 20260506145501 | 54 | 80 | 1.0 | 2.0 | 0.00 | 0.00 | 0.00 | 69 | 1015.3 |
| 20260506145000 | 53 | 51 | 1.0 | 2.0 | 0.00 | 0.00 | 0.00 | 71 | 1015.2 |
| 20260506144501 | 52 | 47 | 1.0 | 2.0 | 0.00 | 0.00 | 0.00 | 73 | 1015.2 |
| 20260506144001 | 52 | 49 | 1.0 | 2.0 | 0.00 | 0.00 | 0.00 | 74 | 1015.2 |
| 20260506143501 | 51 | 38 | 1.0 | 2.0 | 0.00 | 0.00 | 0.00 | 76 | 1015.2 |
| 20260506143001 | 50 | 29 | 1.0 | 2.0 | 0.00 | 0.00 | 0.00 | 78 | 1015.2 |
| 20260506142533 | 49 | 37 | 0.0 | 1.0 | 0.00 | 0.00 | 0.00 | 78 | 1015.2 |
| 20260506142001 | 49 | 32 | 1.0 | 2.0 | 0.00 | 0.00 | 0.00 | 79 | 1015.2 |
| 20260506141501 | 48 | 332 | 0.0 | 2.0 | 0.00 | 0.00 | 0.00 | 80 | 1015.2 |
| 20260506141005 | 48 | 30 | 1.0 | 2.0 | 0.00 | 0.00 | 0.00 | 80 | 1015.2 |
| 20260506140511 | 47 | 83 | 0.0 | 2.0 | 0.00 | 0.00 | 0.00 | 81 | 1015.2 |
| 20260506140002 | 47 | 75 | 1.0 | 2.0 | 0.00 | 0.00 | 0.00 | 83 | 1015.2 |
| 20260506135505 | 47 | 82 | 0.0 | 1.0 | 0.00 | 0.00 | 0.00 | 84 | 1015.2 |
| 20260506135002 | 46 | 114 | 1.0 | 2.0 | 0.00 | 0.00 | 0.00 | 85 | 1015.2 |
| 20260506134506 | 46 | 134 | 1.0 | 2.0 | 0.00 | 0.00 | 0.00 | 86 | 1015.2 |
| 20260506134001 | 45 | 32 | 0.0 | 1.0 | 0.00 | 0.00 | 0.00 | 87 | 1015.2 |
| 20260506133501 | 45 | 23 | 0.0 | 1.0 | 0.00 | 0.00 | 0.00 | 87 | 1015.2 |
| 20260506133012 | 45 | 28 | 0.0 | 0.0 | 0.00 | 0.00 | 0.00 | 87 | 1015.2 |
| 20260506132502 | 45 | 27 | 0.0 | 1.0 | 0.00 | 0.00 | 0.00 | 87 | 1014.9 |
| 20260506132000 | 44 | 28 | 0.0 | 1.0 | 0.00 | 0.00 | 0.00 | 87 | 1014.9 |
| 20260506131506 | 44 | 102 | 0.0 | 0.0 | 0.00 | 0.00 | 0.00 | 87 | 1014.9 |
| 20260506131001 | 44 | 102 | 0.0 | 0.0 | 0.00 | 0.00 | 0.00 | 87 | 1014.9 |
| 20260506130506 | 44 | 101 | 0.0 | 0.0 | 0.00 | 0.00 | 0.00 | 87 | 1014.9 |
| 20260506130001 | 44 | 101 | 0.0 | 0.0 | 0.00 | 0.00 | 0.00 | 87 | 1014.9 |
| 20260506125517 | 44 | 101 | 0.0 | 0.0 | 0.00 | 0.00 | 0.00 | 86 | 1014.9 |
| 20260506125011 | 44 | 99 | 0.0 | 0.0 | 0.00 | 0.00 | 0.00 | 86 | 1014.6 |
| 20260506124506 | 44 | 95 | 0.0 | 0.0 | 0.00 | 0.00 | 0.00 | 86 | 1014.6 |
| 20260506124001 | 44 | 95 | 0.0 | 0.0 | 0.00 | 0.00 | 0.00 | 86 | 1014.6 |
| 20260506123501 | 44 | 95 | 0.0 | 0.0 | 0.00 | 0.00 | 0.00 | 86 | 1014.6 |
| 20260506123001 | 44 | 95 | 0.0 | 0.0 | 0.00 | 0.00 | 0.00 | 86 | 1014.6 |
| 20260506122501 | 44 | 95 | 0.0 | 0.0 | 0.00 | 0.00 | 0.00 | 86 | 1014.6 |
| 20260506122001 | 44 | 95 | 0.0 | 0.0 | 0.00 | 0.00 | 0.00 | 85 | 1014.6 |
| 20260506121501 | 44 | 70 | 0.0 | 0.0 | 0.00 | 0.00 | 0.00 | 85 | 1014.6 |
| 20260506121000 | 44 | 45 | 0.0 | 0.0 | 0.00 | 0.00 | 0.00 | 85 | 1014.6 |
| 20260506120501 | 45 | 45 | 0.0 | 0.0 | 0.00 | 0.00 | 0.00 | 85 | 1014.5 |
| 20260506120000 | 45 | 45 | 0.0 | 0.0 | 0.00 | 0.00 | 0.00 | 85 | 1014.6 |
| 20260506115517 | 45 | 45 | 0.0 | 0.0 | 0.00 | 0.00 | 0.00 | 84 | 1014.5 |
| 20260506115001 | 45 | 45 | 0.0 | 0.0 | 0.00 | 0.00 | 0.00 | 84 | 1014.4 |
| 20260506114501 | 45 | 45 | 0.0 | 0.0 | 0.00 | 0.00 | 0.00 | 83 | 1014.2 |
| 20260506114001 | 46 | 45 | 0.0 | 0.0 | 0.00 | 0.00 | 0.00 | 83 | 1014.2 |
| 20260506113500 | 46 | 45 | 0.0 | 0.0 | 0.00 | 0.00 | 0.00 | 83 | 1014.2 |
| 20260506113006 | 46 | 45 | 0.0 | 0.0 | 0.00 | 0.00 | 0.00 | 83 | 1014.2 |
| 20260506112506 | 46 | 45 | 0.0 | 0.0 | 0.00 | 0.00 | 0.00 | 83 | 1014.2 |
| 20260506112007 | 46 | 45 | 0.0 | 0.0 | 0.00 | 0.00 | 0.00 | 82 | 1014.2 |
| 20260506111506 | 46 | 45 | 0.0 | 0.0 | 0.00 | 0.00 | 0.00 | 82 | 1014.2 |
| 20260506111001 | 46 | 45 | 0.0 | 0.0 | 0.00 | 0.00 | 0.00 | 82 | 1014.2 |
| 20260506110501 | 46 | 46 | 0.0 | 0.0 | 0.00 | 0.00 | 0.00 | 81 | 1014.2 |
| 20260506110006 | 46 | 45 | 0.0 | 0.0 | 0.00 | 0.00 | 0.00 | 81 | 1014.2 |
| 20260506105506 | 47 | 45 | 0.0 | 0.0 | 0.00 | 0.00 | 0.00 | 80 | 1014.2 |
| 20260506105002 | 47 | 46 | 0.0 | 0.0 | 0.00 | 0.00 | 0.00 | 80 | 1014.2 |
| 20260506104501 | 47 | 46 | 0.0 | 0.0 | 0.00 | 0.00 | 0.00 | 79 | 1014.2 |
| 20260506104001 | 47 | 45 | 0.0 | 0.0 | 0.00 | 0.00 | 0.00 | 79 | 1014.2 |
| 20260506103506 | 47 | 45 | 0.0 | 0.0 | 0.00 | 0.00 | 0.00 | 79 | 1014.2 |
| 20260506103001 | 47 | 45 | 0.0 | 0.0 | 0.00 | 0.00 | 0.00 | 79 | 1014.2 |
| 20260506102501 | 47 | 37 | 0.0 | 0.0 | 0.00 | 0.00 | 0.00 | 79 | 1014.2 |
| 20260506102001 | 47 | 36 | 0.0 | 0.0 | 0.00 | 0.00 | 0.00 | 78 | 1014.2 |
| 20260506101507 | 48 | 37 | 0.0 | 0.0 | 0.00 | 0.00 | 0.00 | 78 | 1014.2 |
| 20260506101002 | 48 | 36 | 0.0 | 0.0 | 0.00 | 0.00 | 0.00 | 78 | 1014.2 |
| 20260506100500 | 48 | 32 | 0.0 | 1.0 | 0.00 | 0.00 | 0.00 | 77 | 1014.2 |
| 20260506100001 | 48 | 35 | 0.0 | 0.0 | 0.00 | 0.00 | 0.00 | 76 | 1014.2 |
| 20260506095500 | 48 | 35 | 0.0 | 0.0 | 0.00 | 0.00 | 0.00 | 76 | 1014.2 |
| 20260506095002 | 49 | 36 | 0.0 | 1.0 | 0.00 | 0.00 | 0.00 | 75 | 1014.2 |
| 20260506094501 | 49 | 36 | 0.0 | 0.0 | 0.00 | 0.00 | 0.00 | 75 | 1014.2 |
| 20260506094007 | 49 | 36 | 0.0 | 1.0 | 0.00 | 0.00 | 0.00 | 74 | 1014.2 |
| 20260506093506 | 49 | 36 | 0.0 | 1.0 | 0.00 | 0.00 | 0.00 | 74 | 1014.2 |
| 20260506092500 | 49 | 36 | 0.0 | 1.0 | 0.00 | 0.00 | 0.00 | 74 | 1014.2 |
| 20260506092006 | 49 | 36 | 0.0 | 0.0 | 0.00 | 0.00 | 0.00 | 72 | 1014.2 |
| 20260506091502 | 50 | 37 | 0.0 | 0.0 | 0.00 | 0.00 | 0.00 | 73 | 1014.2 |
| 20260506091006 | 50 | 37 | 0.0 | 0.0 | 0.00 | 0.00 | 0.00 | 72 | 1014.0 |
| 20260506090502 | 50 | 36 | 0.0 | 0.0 | 0.00 | 0.00 | 0.00 | 72 | 1014.0 |
| 20260506090001 | 50 | 35 | 0.0 | 1.0 | 0.00 | 0.00 | 0.00 | 72 | 1014.1 |
| 20260506085511 | 50 | 37 | 0.0 | 1.0 | 0.00 | 0.00 | 0.00 | 72 | 1014.2 |
| 20260506085006 | 50 | 37 | 0.0 | 1.0 | 0.00 | 0.00 | 0.00 | 72 | 1014.2 |
| 20260506084512 | 51 | 37 | 0.0 | 0.0 | 0.00 | 0.00 | 0.00 | 71 | 1014.2 |
| 20260506084000 | 51 | 37 | 0.0 | 0.0 | 0.00 | 0.00 | 0.00 | 70 | 1014.1 |
| 20260506083501 | 51 | 36 | 0.0 | 1.0 | 0.00 | 0.00 | 0.00 | 70 | 1014.0 |
| 20260506083001 | 51 | 33 | 0.0 | 1.0 | 0.00 | 0.00 | 0.00 | 70 | 1014.2 |
| 20260506082507 | 51 | 29 | 0.0 | 1.0 | 0.00 | 0.00 | 0.00 | 70 | 1014.0 |
| 20260506081511 | 52 | 29 | 0.0 | 0.0 | 0.00 | 0.00 | 0.00 | 68 | 1013.9 |
| 20260506081018 | 52 | 29 | 0.0 | 1.0 | 0.00 | 0.00 | 0.00 | 67 | 1013.9 |
| 20260506080501 | 52 | 29 | 0.0 | 0.0 | 0.00 | 0.00 | 0.00 | 66 | 1014.0 |
| 20260506073505 | 53 | 72 | 0.0 | 1.0 | 0.00 | 0.00 | 0.00 | 64 | 1013.9 |
| 20260506073010 | 53 | 73 | 0.0 | 0.0 | 0.00 | 0.00 | 0.00 | 63 | 1013.9 |
| 20260506072501 | 53 | 73 | 0.0 | 0.0 | 0.00 | 0.00 | 0.00 | 64 | 1013.9 |
| 20260506072001 | 54 | 74 | 0.0 | 1.0 | 0.00 | 0.00 | 0.00 | 64 | 1013.9 |
| 20260506071505 | 54 | 73 | 0.0 | 1.0 | 0.00 | 0.00 | 0.00 | 64 | 1013.7 |
| 20260506071006 | 54 | 73 | 0.0 | 0.0 | 0.00 | 0.00 | 0.00 | 63 | 1013.6 |
| 20260506070502 | 54 | 73 | 0.0 | 0.0 | 0.00 | 0.00 | 0.00 | 63 | 1013.5 |
| 20260506062511 | 57 | 67 | 0.0 | 0.0 | 0.00 | 0.00 | 0.00 | 56 | 1013.5 |
| 20260506062006 | 57 | 66 | 0.0 | 1.0 | 0.00 | 0.00 | 0.00 | 56 | 1013.3 |
| 20260506061507 | 57 | 67 | 0.0 | 0.0 | 0.00 | 0.00 | 0.00 | 56 | 1013.3 |
| 20260506061007 | 57 | 67 | 0.0 | 0.0 | 0.00 | 0.00 | 0.00 | 55 | 1013.2 |
| 20260506060506 | 57 | 67 | 0.0 | 0.0 | 0.00 | 0.00 | 0.00 | 56 | 1013.2 |
| 20260506051018 | 60 | 201 | 0.0 | 1.0 | 0.00 | 0.00 | 0.00 | 52 | 1012.9 |
| 20260506050512 | 60 | 203 | 0.0 | 2.0 | 0.00 | 0.00 | 0.00 | 51 | 1012.9 |
| 20260506045001 | 61 | 31 | 0.0 | 1.0 | 0.00 | 0.00 | 0.00 | 50 | 1012.9 |
| 20260506044501 | 62 | 30 | 0.0 | 1.0 | 0.00 | 0.00 | 0.00 | 49 | 1012.6 |
| 20260506044001 | 62 | 30 | 0.0 | 0.0 | 0.00 | 0.00 | 0.00 | 48 | 1012.5 |
| 20260506043505 | 62 | 29 | 0.0 | 1.0 | 0.00 | 0.00 | 0.00 | 47 | 1012.5 |
| 20260506043000 | 63 | 20 | 1.0 | 2.0 | 0.00 | 0.00 | 0.00 | 45 | 1012.5 |
| 20260506042502 | 63 | 240 | 0.0 | 1.0 | 0.00 | 0.00 | 0.00 | 46 | 1012.5 |
| 20260506042003 | 64 | 163 | 1.0 | 1.0 | 0.00 | 0.00 | 0.00 | 44 | 1012.4 |
| 20260506041002 | 64 | 63 | 0.0 | 1.0 | 0.00 | 0.00 | 0.00 | 40 | 1012.2 |
| 20260506040518 | 65 | 69 | 0.0 | 0.0 | 0.00 | 0.00 | 0.00 | 41 | 1012.2 |
| 20260506040001 | 65 | 69 | 0.0 | 0.0 | 0.00 | 0.00 | 0.00 | 40 | 1012.2 |
| 20260506035502 | 66 | 69 | 0.0 | 0.0 | 0.00 | 0.00 | 0.00 | 40 | 1012.1 |
| 20260506035007 | 66 | 78 | 1.0 | 1.0 | 0.00 | 0.00 | 0.00 | 38 | 1011.9 |
| 20260506034507 | 66 | 190 | 0.0 | 0.0 | 0.00 | 0.00 | 0.00 | 38 | 1011.9 |
| 20260506034001 | 67 | 190 | 0.0 | 0.0 | 0.00 | 0.00 | 0.00 | 37 | 1011.9 |
| 20260506033501 | 67 | 191 | 0.0 | 0.0 | 0.00 | 0.00 | 0.00 | 37 | 1011.9 |
| 20260506033001 | 68 | 190 | 0.0 | 1.0 | 0.00 | 0.00 | 0.00 | 36 | 1011.9 |
| 20260506032501 | 69 | 62 | 0.0 | 1.0 | 0.00 | 0.00 | 0.00 | 34 | 1011.7 |
| 20260506032001 | 70 | 41 | 1.0 | 2.0 | 0.00 | 0.00 | 0.00 | 33 | 1011.5 |
| 20260506031507 | 70 | 46 | 0.0 | 1.0 | 0.00 | 0.00 | 0.00 | 30 | 1011.5 |
| 20260506031006 | 71 | 47 | 0.0 | 0.0 | 0.00 | 0.00 | 0.00 | 30 | 1011.5 |
| 20260506030500 | 71 | 60 | 0.0 | 2.0 | 0.00 | 0.00 | 0.00 | 30 | 1011.5 |
| 20260506030007 | 72 | 118 | 0.0 | 2.0 | 0.00 | 0.00 | 0.00 | 29 | 1011.5 |
| 20260506025506 | 72 | 131 | 1.0 | 2.0 | 0.00 | 0.00 | 0.00 | 28 | 1011.5 |
| 20260506025001 | 72 | 118 | 1.0 | 4.0 | 0.00 | 0.00 | 0.00 | 28 | 1011.5 |
| 20260506024501 | 73 | 115 | 1.0 | 3.0 | 0.00 | 0.00 | 0.00 | 28 | 1011.5 |
| 20260506024001 | 73 | 112 | 2.0 | 3.0 | 0.00 | 0.00 | 0.00 | 27 | 1011.5 |
| 20260506023518 | 74 | 115 | 2.0 | 4.0 | 0.00 | 0.00 | 0.00 | 27 | 1011.5 |
| 20260506023002 | 74 | 126 | 1.0 | 2.0 | 0.00 | 0.00 | 0.00 | 27 | 1011.4 |
| 20260506022506 | 75 | 132 | 1.0 | 2.0 | 0.00 | 0.00 | 0.00 | 28 | 1011.3 |
| 20260506022001 | 75 | 68 | 1.0 | 2.0 | 0.00 | 0.00 | 0.00 | 27 | 1011.2 |
| 20260506021511 | 76 | 125 | 0.0 | 0.0 | 0.00 | 0.00 | 0.00 | 27 | 1011.2 |
| 20260506021002 | 76 | 132 | 0.0 | 2.0 | 0.00 | 0.00 | 0.00 | 27 | 1011.2 |
| 20260506020506 | 76 | 62 | 0.0 | 1.0 | 0.00 | 0.00 | 0.00 | 27 | 1011.2 |
| 20260506020001 | 75 | 341 | 1.0 | 2.0 | 0.00 | 0.00 | 0.00 | 27 | 1011.2 |
| 20260506015501 | 75 | 350 | 2.0 | 2.0 | 0.00 | 0.00 | 0.00 | 26 | 1011.2 |
| 20260506015002 | 76 | 3 | 1.0 | 2.0 | 0.00 | 0.00 | 0.00 | 26 | 1011.4 |
| 20260506014501 | 76 | 1 | 1.0 | 2.0 | 0.00 | 0.00 | 0.00 | 26 | 1011.5 |
| 20260506014002 | 76 | 80 | 0.0 | 2.0 | 0.00 | 0.00 | 0.00 | 27 | 1011.5 |
| 20260506013506 | 76 | 249 | 1.0 | 2.0 | 0.00 | 0.00 | 0.00 | 26 | 1011.5 |
| 20260506013000 | 75 | 252 | 2.0 | 3.0 | 0.00 | 0.00 | 0.00 | 26 | 1011.5 |
| 20260506012506 | 75 | 307 | 2.0 | 3.0 | 0.00 | 0.00 | 0.00 | 26 | 1011.5 |
| 20260506012006 | 76 | 319 | 2.0 | 4.0 | 0.00 | 0.00 | 0.00 | 25 | 1011.5 |
| 20260506011501 | 76 | 135 | 1.0 | 2.0 | 0.00 | 0.00 | 0.00 | 26 | 1011.5 |
| 20260506011001 | 76 | 71 | 1.0 | 2.0 | 0.00 | 0.00 | 0.00 | 25 | 1011.5 |
| 20260506010500 | 76 | 48 | 2.0 | 4.0 | 0.00 | 0.00 | 0.00 | 25 | 1011.5 |
| 20260506010001 | 76 | 38 | 2.0 | 4.0 | 0.00 | 0.00 | 0.00 | 25 | 1011.5 |
| 20260506005501 | 77 | 338 | 2.0 | 4.0 | 0.00 | 0.00 | 0.00 | 25 | 1011.5 |
| 20260506005006 | 77 | 2 | 2.0 | 4.0 | 0.00 | 0.00 | 0.00 | 25 | 1011.5 |
| 20260506004505 | 77 | 336 | 1.0 | 4.0 | 0.00 | 0.00 | 0.00 | 25 | 1011.5 |
| 20260506004006 | 77 | 360 | 2.0 | 4.0 | 0.00 | 0.00 | 0.00 | 24 | 1011.5 |
| 20260506003501 | 77 | 103 | 1.0 | 3.0 | 0.00 | 0.00 | 0.00 | 24 | 1011.7 |
| 20260506003000 | 77 | 269 | 2.0 | 4.0 | 0.00 | 0.00 | 0.00 | 24 | 1011.9 |
| 20260506002501 | 77 | 298 | 2.0 | 4.0 | 0.00 | 0.00 | 0.00 | 24 | 1011.9 |
| 20260506002012 | 77 | 278 | 3.0 | 5.0 | 0.00 | 0.00 | 0.00 | 24 | 1011.9 |
| 20260506001512 | 78 | 263 | 3.0 | 5.0 | 0.00 | 0.00 | 0.00 | 24 | 1011.9 |
| 20260506000001 | 79 | 141 | 2.0 | 4.0 | 0.00 | 0.00 | 0.00 | 23 | 1012.0 |
| 20260505235501 | 79 | 23 | 1.0 | 3.0 | 0.00 | 0.00 | 0.00 | 24 | 1012.2 |
| 20260505235000 | 78 | 308 | 3.0 | 7.0 | 0.00 | 0.00 | 0.00 | 24 | 1012.2 |
| 20260505234501 | 77 | 13 | 2.0 | 6.0 | 0.00 | 0.00 | 0.00 | 24 | 1012.2 |
| 20260505234006 | 77 | 5 | 3.0 | 6.0 | 0.00 | 0.00 | 0.00 | 24 | 1012.2 |
| 20260505233513 | 77 | 36 | 3.0 | 5.0 | 0.00 | 0.00 | 0.00 | 24 | 1012.2 |
| 20260505232502 | 77 | 40 | 3.0 | 7.0 | 0.00 | 0.00 | 0.00 | 24 | 1012.2 |
| 20260505232001 | 77 | 37 | 3.0 | 7.0 | 0.00 | 0.00 | 0.00 | 24 | 1012.2 |
| 20260505231502 | 77 | 328 | 4.0 | 8.0 | 0.00 | 0.00 | 0.00 | 24 | 1012.2 |
| 20260505231001 | 78 | 336 | 3.0 | 5.0 | 0.00 | 0.00 | 0.00 | 23 | 1012.5 |
| 20260505230502 | 78 | 326 | 3.0 | 5.0 | 0.00 | 0.00 | 0.00 | 23 | 1012.5 |
| 20260505230001 | 78 | 46 | 1.0 | 3.0 | 0.00 | 0.00 | 0.00 | 23 | 1012.5 |
| 20260505225502 | 78 | 2 | 3.0 | 6.0 | 0.00 | 0.00 | 0.00 | 23 | 1012.5 |
| 20260505225007 | 79 | 70 | 3.0 | 5.0 | 0.00 | 0.00 | 0.00 | 23 | 1012.5 |
| 20260505224508 | 80 | 90 | 3.0 | 5.0 | 0.00 | 0.00 | 0.00 | 22 | 1012.5 |
| 20260505224003 | 79 | 97 | 2.0 | 4.0 | 0.00 | 0.00 | 0.00 | 23 | 1012.5 |
| 20260505223501 | 79 | 57 | 2.0 | 4.0 | 0.00 | 0.00 | 0.00 | 23 | 1012.7 |
| 20260505223001 | 79 | 139 | 1.0 | 2.0 | 0.00 | 0.00 | 0.00 | 24 | 1012.9 |
| 20260505222502 | 77 | 116 | 2.0 | 4.0 | 0.00 | 0.00 | 0.00 | 24 | 1012.9 |
| 20260505222002 | 76 | 64 | 2.0 | 4.0 | 0.00 | 0.00 | 0.00 | 24 | 1012.9 |
| 20260505221502 | 77 | 25 | 5.0 | 10.0 | 0.00 | 0.00 | 0.00 | 24 | 1012.9 |
| 20260505221004 | 79 | 68 | 4.0 | 8.0 | 0.00 | 0.00 | 0.00 | 24 | 1012.9 |
| 20260505220505 | 78 | 37 | 2.0 | 4.0 | 0.00 | 0.00 | 0.00 | 24 | 1012.9 |
| 20260505215507 | 76 | 350 | 3.0 | 6.0 | 0.00 | 0.00 | 0.00 | 24 | 1013.1 |
| 20260505215001 | 76 | 334 | 4.0 | 7.0 | 0.00 | 0.00 | 0.00 | 24 | 1013.2 |
| 20260505214501 | 76 | 61 | 3.0 | 5.0 | 0.00 | 0.00 | 0.00 | 24 | 1013.2 |
| 20260505214006 | 76 | 7 | 5.0 | 7.0 | 0.00 | 0.00 | 0.00 | 24 | 1013.2 |
| 20260505213507 | 76 | 321 | 3.0 | 7.0 | 0.00 | 0.00 | 0.00 | 24 | 1013.2 |
| 20260505213006 | 77 | 324 | 4.0 | 7.0 | 0.00 | 0.00 | 0.00 | 24 | 1013.3 |
| 20260505212506 | 76 | 25 | 2.0 | 5.0 | 0.00 | 0.00 | 0.00 | 24 | 1013.5 |
| 20260505212001 | 76 | 1 | 4.0 | 8.0 | 0.00 | 0.00 | 0.00 | 25 | 1013.4 |
| 20260505211502 | 76 | 329 | 3.0 | 7.0 | 0.00 | 0.00 | 0.00 | 25 | 1013.5 |
| 20260505211012 | 76 | 104 | 3.0 | 7.0 | 0.00 | 0.00 | 0.00 | 24 | 1013.5 |
| 20260505210506 | 77 | 3 | 3.0 | 7.0 | 0.00 | 0.00 | 0.00 | 25 | 1013.5 |
| 20260505210001 | 76 | 325 | 1.0 | 3.0 | 0.00 | 0.00 | 0.00 | 26 | 1013.5 |
| 20260505205501 | 75 | 350 | 3.0 | 7.0 | 0.00 | 0.00 | 0.00 | 27 | 1013.5 |
| 20260505205001 | 74 | 340 | 3.0 | 8.0 | 0.00 | 0.00 | 0.00 | 26 | 1013.5 |
| 20260505204506 | 75 | 328 | 6.0 | 11.0 | 0.00 | 0.00 | 0.00 | 26 | 1013.5 |
| 20260505204012 | 76 | 336 | 2.0 | 5.0 | 0.00 | 0.00 | 0.00 | 25 | 1013.5 |
| 20260505203506 | 75 | 112 | 3.0 | 6.0 | 0.00 | 0.00 | 0.00 | 26 | 1013.7 |
| 20260505203001 | 75 | 357 | 4.0 | 7.0 | 0.00 | 0.00 | 0.00 | 27 | 1013.6 |
| 20260505202502 | 75 | 295 | 2.0 | 5.0 | 0.00 | 0.00 | 0.00 | 27 | 1013.5 |
| 20260505202001 | 76 | 192 | 3.0 | 5.0 | 0.00 | 0.00 | 0.00 | 27 | 1013.6 |
| 20260505201516 | 75 | 156 | 3.0 | 5.0 | 0.00 | 0.00 | 0.00 | 28 | 1013.9 |
| 20260505201011 | 75 | 177 | 3.0 | 5.0 | 0.00 | 0.00 | 0.00 | 28 | 1013.9 |
| 20260505200508 | 74 | 126 | 3.0 | 6.0 | 0.00 | 0.00 | 0.00 | 28 | 1013.9 |
| 20260505200001 | 74 | 162 | 2.0 | 4.0 | 0.00 | 0.00 | 0.00 | 28 | 1013.9 |
| 20260505195501 | 74 | 21 | 3.0 | 7.0 | 0.00 | 0.00 | 0.00 | 29 | 1013.9 |